Location: Liscomb Game Sanctuary
(45.1633°N, 62.5575°W)
Time: 00:39:47
(UTC-03:00)

Amateur Radio Satellites - All Passes

Search period start: 29 April 2017 00:09
Search period end: 30 April 2017 00:09
Location: Liscomb Game Sanctuary, 45.1633°N, 62.5575°W

Satellite Date Start Highest point End Downlink Frequencies (MHz)
Time Altitude Azimuth
UNISAT 6 29 Apr 00:10:20 00:14:09 32° 291° (WNW) 00:18:00 437.425
LO-87 29 Apr 00:11:46 00:14:40 22° 265° (W) 00:17:34 145.935 - 145.965
AIST 2D 29 Apr 00:13:42 00:17:04 40° 98° (E) 00:20:25 435.315
NANOSAT C BR1 29 Apr 00:20:26 00:23:51 24° 95° (E) 00:27:14 145.865
50 SAT 29 Apr 00:29:38 00:32:53 38° 71° (ENE) 00:36:10 437.505
PRISM 29 Apr 00:31:23 00:33:29 14° 299° (WNW) 00:35:35 437.425
DX 1 29 Apr 00:42:49 00:46:56 41° 69° (ENE) 00:51:04 434.975-435.025
SPROUT 29 Apr 00:43:09 00:47:26 86° 256° (WSW) 00:51:44 437.525
BEESAT 2 29 Apr 00:43:36 00:43:55 10° 252° (WSW) 00:44:15 435.950
DUCHIFAT 1 29 Apr 00:48:30 00:52:29 42° 99° (E) 00:56:27 145.980
EO-79 29 Apr 00:49:17 00:53:25 53° 100° (E) 00:57:31 145.935-145.965
FO-29 29 Apr 00:53:15 00:57:33 27° 296° (WNW) 01:02:02 435.910
NO-84 29 Apr 01:00:45 01:03:26 27° 24° (NNE) 01:05:59 435.350 FM
PCSat 29 Apr 01:06:45 01:09:29 14° 103° (ESE) 01:12:13 145.827
POLYITAN 1 29 Apr 01:29:20 01:33:27 56° 287° (WNW) 01:37:34 437.675
VELOX 1 29 Apr 01:35:49 01:39:26 24° 266° (W) 01:43:05 145.980
QB50P2 29 Apr 01:36:12 01:40:12 43° 289° (WNW) 01:44:12 145.880/145.840
BUGSAT 1 29 Apr 01:40:35 01:44:30 50° 100° (E) 01:48:24 437.445
UKube-1 29 Apr 01:40:38 01:44:57 71° 257° (WSW) 01:49:18 .
AIST 2D 29 Apr 01:47:58 01:49:57 14° 295° (WNW) 01:51:56 435.315
BEESAT 29 Apr 01:54:23 01:57:26 17° 60° (ENE) 02:00:28 436.000
NANOSAT C BR1 29 Apr 01:55:51 01:59:35 32° 291° (WNW) 02:03:20 145.865
50 SAT 29 Apr 02:04:04 02:06:00 14° 268° (W) 02:07:56 437.505
Oscar 19 29 Apr 02:10:53 02:15:42 37° 97° (E) 02:20:29 437.125/150
DX 1 29 Apr 02:19:57 02:23:16 21° 267° (W) 02:26:37 434.975-435.025
DUCHIFAT 1 29 Apr 02:24:54 02:27:52 19° 296° (WNW) 02:30:50 145.980
EO-79 29 Apr 02:26:11 02:28:46 16° 298° (WNW) 02:31:22 145.935-145.965
Gurwin Techsat 1B 29 Apr 02:32:05 02:36:56 34° 96° (E) 02:41:44 435.225
ITUPSAT 1 29 Apr 02:35:03 02:39:25 38° 68° (ENE) 02:43:48 437.325
NO-84 29 Apr 02:38:15 02:40:58 35° 224° (SW) 02:43:35 435.350 FM
PCSat 29 Apr 02:46:39 02:52:05 88° 301° (WNW) 02:57:34 145.827
MOZHAYETS 4 29 Apr 03:01:55 03:05:58 33° 68° (ENE) 03:10:03
AO-7 29 Apr 03:03:05 03:07:00 14° 86° (E) 03:10:53 .
BUGSAT 1 29 Apr 03:17:04 03:19:28 16° 297° (WNW) 03:21:52 437.445
BEESAT 29 Apr 03:30:00 03:34:42 64° 258° (WSW) 03:39:27 436.000
YUBILEINY 29 Apr 03:33:41 03:40:43 29° 81° (E) 03:47:45 435.215
ITAMSAT 1 29 Apr 03:42:32 03:46:42 24° 94° (E) 03:50:48 435.822/435.867
Oscar 19 29 Apr 03:50:22 03:54:56 32° 295° (WNW) 03:59:28 437.125/150
CUBESAT XI-V 29 Apr 03:59:59 04:03:44 25° 65° (ENE) 04:07:33 437.345
Gurwin Techsat 1B 29 Apr 04:12:04 04:16:50 34° 294° (WNW) 04:21:35 435.225
ITUPSAT 1 29 Apr 04:13:23 04:17:20 26° 265° (W) 04:21:19 437.325
KKS-1 29 Apr 04:32:00 04:36:21 52° 71° (ENE) 04:40:42 437.445
PCSat 29 Apr 04:32:21 04:36:15 20° 322° (NW) 04:40:11 145.827
MOZHAYETS 4 29 Apr 04:39:16 04:43:09 27° 266° (W) 04:47:04
AO-7 29 Apr 04:52:55 05:01:15 70° 106° (ESE) 05:09:33 .
STARS 29 Apr 04:56:39 05:00:48 42° 70° (ENE) 05:04:58 437.465
SO-50 29 Apr 05:10:14 05:11:43 11° 108° (ESE) 05:13:13 436.795
ITAMSAT 1 29 Apr 05:21:25 05:26:23 47° 291° (WNW) 05:31:19 435.822/435.867
YUBILEINY 29 Apr 05:28:10 05:36:48 67° 282° (WNW) 05:45:30 435.215
CUBESAT XI-V 29 Apr 05:36:33 05:40:54 39° 263° (W) 05:45:20 437.345
KKS-1 29 Apr 06:10:17 06:13:12 17° 268° (W) 06:16:08 437.445
XW-2F 29 Apr 06:19:30 06:21:17 13° 90° (E) 06:23:04 145.980 - 146.000
NUDT-PHONESAT 29 Apr 06:23:24 06:24:33 11° 90° (E) 06:25:44 437.300
RS-15 29 Apr 06:32:22 06:42:57 38° 106° (ESE) 06:53:45 29.354- 29.394
STARS 29 Apr 06:34:01 06:37:19 20° 267° (W) 06:40:37 437.465
M-CUBED/EXP-1 PRIME 29 Apr 06:41:55 06:46:01 31° 62° (ENE) 06:50:07 437.505
AO-7 29 Apr 06:46:25 06:53:26 32° 306° (NW) 07:00:28 .
SO-50 29 Apr 06:46:52 06:51:28 89° 137° (SE) 06:56:04 436.795
CUTE-I 29 Apr 06:48:14 06:52:49 29° 95° (E) 06:57:21 437.470
HO-68 29 Apr 07:03:50 07:06:55 13° 85° (E) 07:09:58 435.675
XW-2D 29 Apr 07:09:26 07:13:11 52° 100° (E) 07:16:56 145.860 - 145.880
ISS 29 Apr 07:14:06 07:15:46 13° 133° (SE) 07:17:26 437.550
STRAND 1 29 Apr 07:15:19 07:20:16 53° 70° (ENE) 07:25:14 437.568
XW-2B 29 Apr 07:16:25 07:20:13 61° 101° (E) 07:24:00 145.730 - 145.750
DOVE 4 29 Apr 07:16:58 07:21:36 86° 284° (WNW) 07:25:56 437.250
KAITUO 1B 29 Apr 07:19:32 07:23:15 53° 100° (E) 07:26:57 145.475/437.950
XW-2C 29 Apr 07:28:27 07:32:17 87° 103° (ESE) 07:36:07 145.795 - 145.815
LilacSat-2 29 Apr 07:30:34 07:34:25 85° 284° (WNW) 07:38:17 437.200
YUBILEINY 29 Apr 07:30:51 07:35:35 15° 306° (NW) 07:40:21 435.215
CUTE 1.7 + AOD 2 29 Apr 07:36:03 07:38:33 15° 90° (E) 07:41:03 437.475
SEEDS 29 Apr 07:51:00 07:53:17 14° 90° (E) 07:55:34 437.485
XW-2F 29 Apr 07:52:00 07:55:43 50° 287° (WNW) 07:59:25 145.980 - 146.000
NUDT-PHONESAT 29 Apr 07:55:09 07:58:48 56° 286° (WNW) 08:02:28 437.300
Tancredo 1 29 Apr 08:06:17 08:09:16 48° 144° (SE) 08:12:17 437.200
M-CUBED/EXP-1 PRIME 29 Apr 08:16:06 08:20:19 34° 258° (WSW) 08:24:36 437.505
CUTE-I 29 Apr 08:28:01 08:32:59 41° 292° (WNW) 08:37:55 437.470
SO-50 29 Apr 08:29:24 08:32:34 18° 325° (NW) 08:35:43 436.795
RS-15 29 Apr 08:42:27 08:54:36 74° 310° (NW) 09:07:04 29.354- 29.394
XW-2D 29 Apr 08:44:58 08:46:58 14° 297° (WNW) 08:48:57 145.860 - 145.880
ISS 29 Apr 08:48:33 08:51:49 88° 152° (SSE) 08:55:06 437.550
HO-68 29 Apr 08:48:38 08:55:52 72° 105° (ESE) 09:03:03 435.675
AAUSAT CUBESAT 2 29 Apr 08:49:31 08:53:11 28° 95° (E) 08:56:49 437.432
UWE-3 29 Apr 08:50:06 08:53:39 26° 95° (E) 08:57:14 435.000/436.395/437.385
XW-2B 29 Apr 08:52:22 08:53:55 12° 298° (WNW) 08:55:29 145.730 - 145.750
KAITUO 1B 29 Apr 08:54:57 08:56:50 13° 297° (WNW) 08:58:43 145.475/437.950
XW-2A 29 Apr 08:54:58 08:58:19 65° 284° (WNW) 09:01:38 145.665 - 145.685
STRAND 1 29 Apr 08:55:59 08:59:45 21° 268° (W) 09:03:33 437.568
DOVE 4 29 Apr 08:57:17 08:58:26 11° 304° (WNW) 08:59:34 437.250
CUBEBUG 2 29 Apr 09:08:47 09:12:57 67° 102° (ESE) 09:17:11 437.445
CUTE 1.7 + AOD 2 29 Apr 09:10:31 09:14:43 54° 287° (WNW) 09:18:55 437.475
TIGRISAT 29 Apr 09:13:36 09:16:23 17° 63° (ENE) 09:19:11 435.000
FO-29 29 Apr 09:22:56 09:27:41 25° 64° (ENE) 09:32:06 435.910
SEEDS 29 Apr 09:25:08 09:29:20 57° 286° (WNW) 09:33:31 437.485
O/OREOS (USA 219) 29 Apr 09:30:22 09:33:42 20° 101° (E) 09:37:02 437.305
UNISAT 6 29 Apr 09:34:34 09:38:19 29° 68° (ENE) 09:42:01 437.425
ZACube-1 29 Apr 09:38:47 09:42:55 50° 99° (E) 09:47:06 437.345
Tancredo 1 29 Apr 09:42:22 09:45:16 34° 343° (NNW) 09:48:08 437.200
AO-73 29 Apr 09:43:57 09:48:05 51° 100° (E) 09:52:17 145.935
PRISM 29 Apr 09:45:19 09:49:24 59° 72° (ENE) 09:53:32 437.425
PCSat 29 Apr 09:49:46 09:54:06 23° 41° (NE) 09:58:24 145.827
Oscar 11 29 Apr 09:56:03 10:00:22 58° 100° (E) 10:04:39 .
AAUSAT CUBESAT 2 29 Apr 10:25:00 10:28:34 27° 292° (WNW) 10:32:08 437.432
ISS 29 Apr 10:25:41 10:28:37 29° 349° (N) 10:31:31 437.550
UWE-3 29 Apr 10:26:26 10:30:06 30° 291° (WNW) 10:33:51 435.000/436.395/437.385
HO-68 29 Apr 10:37:14 10:42:58 27° 304° (NW) 10:48:41 435.675
OBJECT BX 29 Apr 10:41:43 10:45:11 38° 98° (E) 10:48:38 145.990 - 145.960
DELFI C3 29 Apr 10:42:48 10:46:46 55° 100° (E) 10:50:40 145.870
CUBEBUG 2 29 Apr 10:47:07 10:49:05 13° 298° (WNW) 10:51:03 437.445
TIGRISAT 29 Apr 10:48:29 10:52:43 52° 260° (W) 10:56:55 435.000
POLYITAN 1 29 Apr 10:49:49 10:52:14 15° 62° (ENE) 10:54:37 437.675
AIST 2D 29 Apr 10:50:30 10:53:07 20° 68° (ENE) 10:55:47 435.315
QB50P2 29 Apr 10:55:59 10:58:55 19° 64° (ENE) 11:01:50 145.880/145.840
RS-15 29 Apr 10:58:43 11:09:40 35° 340° (NNW) 11:20:38 29.354- 29.394
FO-29 29 Apr 11:06:34 11:12:34 53° 259° (W) 11:17:58 435.910
O/OREOS (USA 219) 29 Apr 11:08:18 11:12:44 47° 299° (WNW) 11:17:13 437.305
UNISAT 6 29 Apr 11:11:13 11:14:59 28° 264° (W) 11:18:44 437.425
NANOSAT C BR1 29 Apr 11:14:26 11:17:48 24° 66° (ENE) 11:21:10 145.865
ZACube-1 29 Apr 11:16:04 11:18:51 17° 296° (WNW) 11:21:40 437.345
Tancredo 1 29 Apr 11:19:08 11:21:43 24° 3° (N) 11:24:18 437.200
AO-73 29 Apr 11:21:14 11:23:58 17° 296° (WNW) 11:26:43 145.935
PRISM 29 Apr 11:23:02 11:25:04 13° 270° (W) 11:27:06 437.425
PCSat 29 Apr 11:32:37 11:38:03 73° 241° (WSW) 11:43:27 145.827
Oscar 11 29 Apr 11:33:24 11:36:03 16° 298° (WNW) 11:38:42 .
LO-87 29 Apr 11:36:20 11:39:15 23° 95° (E) 11:42:07 145.935 - 145.965
DUCHIFAT 1 29 Apr 11:41:57 11:45:52 40° 70° (ENE) 11:49:48 145.980
EO-79 29 Apr 11:43:17 11:47:22 51° 72° (ENE) 11:51:27 145.935-145.965
ESTCUBE 1 29 Apr 11:46:38 11:50:00 20° 92° (E) 11:53:20 437.505/2401.250
Oscar 19 29 Apr 11:55:23 11:56:18 10° 53° (NE) 11:57:15 437.125/150
ISS 29 Apr 12:02:51 12:05:44 28° 9° (N) 12:08:36 437.550
OBJECT BX 29 Apr 12:16:15 12:18:35 16° 295° (WNW) 12:20:55 145.990 - 145.960
DELFI C3 29 Apr 12:18:53 12:21:06 14° 297° (WNW) 12:23:17 145.870
Gurwin Techsat 1B 29 Apr 12:19:57 12:21:19 11° 53° (NE) 12:22:42 435.225
AIST 2D 29 Apr 12:23:17 12:26:13 26° 265° (W) 12:29:11 435.315
POLYITAN 1 29 Apr 12:23:25 12:27:33 58° 259° (W) 12:31:43 437.675
AO-85 29 Apr 12:26:58 12:31:06 52° 121° (ESE) 12:35:02 145.980
SPROUT 29 Apr 12:28:15 12:30:26 14° 90° (E) 12:32:38 437.525
QB50P2 29 Apr 12:30:20 12:34:23 45° 261° (W) 12:38:27 145.880/145.840
BUGSAT 1 29 Apr 12:31:49 12:35:47 46° 71° (ENE) 12:39:42 437.445
NANOSAT C BR1 29 Apr 12:49:33 12:53:21 33° 263° (W) 12:57:11 145.865
BEESAT 3 29 Apr 12:51:09 12:53:53 18° 112° (ESE) 12:56:40 437.485
Tancredo 1 29 Apr 12:55:04 12:58:05 47° 23° (NNE) 13:01:06 437.200
LO-87 29 Apr 13:09:44 13:12:38 24° 292° (WNW) 13:15:31 145.935 - 145.965
RS-15 29 Apr 13:16:09 13:26:54 32° 14° (NNE) 13:37:25 29.354- 29.394
DUCHIFAT 1 29 Apr 13:18:42 13:21:42 19° 267° (W) 13:24:43 145.980
PCSat 29 Apr 13:19:42 13:20:27 10° 259° (W) 13:21:13 145.827
EO-79 29 Apr 13:20:52 13:23:25 15° 269° (W) 13:25:58 145.935-145.965
VELOX 1 29 Apr 13:22:38 13:26:59 54° 100° (E) 13:31:18 145.980
ESTCUBE 1 29 Apr 13:22:40 13:27:01 45° 289° (WNW) 13:31:20 437.505/2401.250
50 SAT 29 Apr 13:23:51 13:26:57 29° 97° (E) 13:30:01 437.505
UKube-1 29 Apr 13:26:39 13:29:21 16° 91° (E) 13:32:03 .
Oscar 19 29 Apr 13:29:31 13:34:38 66° 72° (ENE) 13:39:48 437.125/150
SO-50 29 Apr 13:36:24 13:40:03 23° 39° (NE) 13:43:40 436.795
ISS 29 Apr 13:39:17 13:42:33 80° 28° (NNE) 13:45:48 437.550
YUBILEINY 29 Apr 13:40:33 13:45:41 16° 55° (NE) 13:50:47 435.215
Gurwin Techsat 1B 29 Apr 13:55:01 14:00:16 67° 72° (ENE) 14:05:34 435.225
SPROUT 29 Apr 14:02:33 14:06:44 58° 287° (WNW) 14:10:53 437.525
AO-7 29 Apr 14:03:32 14:10:15 29° 52° (NE) 14:16:58 .
DX 1 29 Apr 14:04:37 14:08:56 57° 101° (ESE) 14:13:12 434.975-435.025
AO-85 29 Apr 14:08:32 14:11:44 21° 319° (NW) 14:14:51 145.980
BUGSAT 1 29 Apr 14:08:44 14:11:22 16° 268° (W) 14:13:59 437.445
BEESAT 3 29 Apr 14:27:19 14:31:09 47° 310° (NW) 14:35:03 437.485
Tancredo 1 29 Apr 14:31:10 14:33:51 27° 221° (SW) 14:36:33 437.200
BEESAT 2 29 Apr 14:32:53 14:36:51 80° 124° (ESE) 14:40:54 435.950
50 SAT 29 Apr 14:57:13 14:59:41 18° 294° (WNW) 15:02:09 437.505
VELOX 1 29 Apr 15:00:05 15:03:02 18° 298° (WNW) 15:05:57 145.980
UKube-1 29 Apr 15:01:29 15:05:42 51° 289° (WNW) 15:09:52 .
ITAMSAT 1 29 Apr 15:02:12 15:07:07 45° 68° (ENE) 15:12:03 435.822/435.867
Oscar 19 29 Apr 15:11:05 15:14:25 17° 270° (W) 15:17:47 437.125/150
SO-50 29 Apr 15:16:25 15:20:51 58° 238° (WSW) 15:25:15 436.795
ISS 29 Apr 15:16:38 15:18:40 16° 226° (SW) 15:20:43 437.550
BEESAT 29 Apr 15:28:16 15:32:19 27° 95° (E) 15:36:21 436.000
RS-15 29 Apr 15:30:14 15:42:30 63° 45° (NE) 15:54:12 29.354- 29.394
YUBILEINY 29 Apr 15:35:35 15:44:22 70° 78° (ENE) 15:53:08 435.215
Gurwin Techsat 1B 29 Apr 15:37:14 15:40:42 17° 270° (W) 15:44:12 435.225
DX 1 29 Apr 15:41:57 15:44:40 16° 299° (WNW) 15:47:24 434.975-435.025
AO-7 29 Apr 15:53:58 16:02:16 78° 253° (WSW) 16:10:37 .
BEESAT 3 29 Apr 16:09:24 16:09:43 10° 331° (NNW) 16:10:03 437.485
ITUPSAT 1 29 Apr 16:10:32 16:15:19 68° 102° (ESE) 16:20:05 437.325
BEESAT 2 29 Apr 16:12:34 16:15:09 16° 324° (NW) 16:17:44 435.950
MOZHAYETS 4 29 Apr 16:31:06 16:35:41 58° 100° (E) 16:40:15
ITAMSAT 1 29 Apr 16:42:32 16:46:46 25° 266° (W) 16:51:01 435.822/435.867
DOVE 4 29 Apr 16:47:50 16:51:13 18° 61° (ENE) 16:54:31 437.250
BEESAT 29 Apr 17:05:48 17:10:10 36° 292° (WNW) 17:14:31 436.000
CUBESAT XI-V 29 Apr 17:30:34 17:35:06 44° 98° (E) 17:39:35 437.345
YUBILEINY 29 Apr 17:33:24 17:40:23 28° 279° (W) 17:47:24 435.215
HO-68 29 Apr 17:35:47 17:39:34 15° 48° (NE) 17:43:22 435.675
RS-15 29 Apr 17:43:22 17:54:39 47° 251° (WSW) 18:05:29 29.354- 29.394
ITUPSAT 1 29 Apr 17:49:39 17:52:37 17° 300° (WNW) 17:55:35 437.325
AO-7 29 Apr 17:51:36 17:56:21 16° 273° (W) 18:01:07 .
XW-2D 29 Apr 17:52:38 17:56:00 32° 70° (ENE) 17:59:23 145.860 - 145.880
KKS-1 29 Apr 17:57:03 18:01:31 79° 104° (ESE) 18:05:56 437.445
NO-84 29 Apr 17:58:43 17:59:53 11° 127° (SE) 18:01:01 435.350 FM
XW-2B 29 Apr 17:59:32 18:03:00 37° 71° (ENE) 18:06:31 145.730 - 145.750
KAITUO 1B 29 Apr 18:01:31 18:04:49 32° 70° (ENE) 18:08:09 145.475/437.950
MOZHAYETS 4 29 Apr 18:09:21 18:12:24 18° 298° (WNW) 18:15:26
XW-2C 29 Apr 18:11:24 18:15:02 53° 74° (ENE) 18:18:44 145.795 - 145.815
CUTE-I 29 Apr 18:11:49 18:17:02 57° 71° (ENE) 18:22:16 437.470
LilacSat-2 29 Apr 18:14:03 18:17:45 60° 74° (ENE) 18:21:30 437.200
STARS 29 Apr 18:19:45 18:24:05 60° 101° (ESE) 18:28:23 437.465
DOVE 4 29 Apr 18:23:02 18:28:20 74° 259° (WSW) 18:33:30 437.250
CUTE 1.7 + AOD 2 29 Apr 18:31:07 18:33:28 15° 62° (ENE) 18:35:49 437.475
XW-2F 29 Apr 18:34:22 18:38:05 83° 257° (WSW) 18:41:51 145.980 - 146.000
NUDT-PHONESAT 29 Apr 18:35:57 18:39:37 84° 76° (ENE) 18:43:18 437.300
SEEDS 29 Apr 18:45:09 18:47:14 14° 61° (ENE) 18:49:20 437.485
CUBESAT XI-V 29 Apr 19:08:30 19:12:12 23° 296° (WNW) 19:15:53 437.345
AO-85 29 Apr 19:16:52 19:18:51 13° 34° (NE) 19:20:50 145.980
HO-68 29 Apr 19:18:55 19:25:58 65° 68° (ENE) 19:33:04 435.675
STRAND 1 29 Apr 19:25:00 19:27:56 15° 89° (E) 19:30:52 437.568
XW-2D 29 Apr 19:27:35 19:30:16 19° 267° (W) 19:33:00 145.860 - 145.880
XW-2A 29 Apr 19:27:54 19:31:10 51° 74° (ENE) 19:34:26 145.665 - 145.685
NO-84 29 Apr 19:33:16 19:37:00 79° 143° (SE) 19:40:26 435.350 FM
XW-2B 29 Apr 19:34:57 19:37:22 16° 268° (W) 19:39:47 145.730 - 145.750
KKS-1 29 Apr 19:35:29 19:37:27 13° 301° (WNW) 19:39:24 437.445
KAITUO 1B 29 Apr 19:36:16 19:38:55 19° 267° (W) 19:41:36 145.475/437.950
O/OREOS (USA 219) 29 Apr 19:36:56 19:41:27 54° 62° (ENE) 19:45:55 437.305
AAUSAT CUBESAT 2 29 Apr 19:41:35 19:44:59 25° 67° (ENE) 19:48:25 437.432
XW-2C 29 Apr 19:48:11 19:49:35 12° 270° (W) 19:51:00 145.795 - 145.815
UWE-3 29 Apr 19:49:08 19:52:41 27° 68° (ENE) 19:56:11 435.000/436.395/437.385
LilacSat-2 29 Apr 19:51:41 19:52:26 10° 271° (W) 19:53:12 437.200
CUTE-I 29 Apr 19:53:30 19:57:27 21° 268° (W) 20:01:23 437.470
M-CUBED/EXP-1 PRIME 29 Apr 19:54:32 19:56:28 13° 94° (E) 19:58:19 437.505
STARS 29 Apr 19:57:22 19:59:57 16° 299° (WNW) 20:02:33 437.465
CUTE 1.7 + AOD 2 29 Apr 20:04:38 20:08:49 61° 260° (W) 20:13:02 437.475
CUBEBUG 2 29 Apr 20:08:32 20:12:49 70° 74° (ENE) 20:17:01 437.445
SEEDS 29 Apr 20:18:13 20:22:24 66° 260° (W) 20:26:37 437.485
ZACube-1 29 Apr 20:36:25 20:40:25 48° 72° (ENE) 20:44:25 437.345
AO-73 29 Apr 20:41:15 20:45:15 49° 72° (ENE) 20:49:16 145.935
Oscar 11 29 Apr 20:52:27 20:56:39 56° 73° (ENE) 21:00:53 .
AO-85 29 Apr 20:55:54 20:59:52 80° 56° (NE) 21:04:00 145.980
STRAND 1 29 Apr 21:02:33 21:07:39 72° 287° (WNW) 21:12:43 437.568
BEESAT 3 29 Apr 21:04:57 21:08:20 25° 43° (NE) 21:11:40 437.485
HO-68 29 Apr 21:08:23 21:14:12 26° 267° (W) 21:20:04 435.675
NO-84 29 Apr 21:11:57 21:14:49 23° 339° (NNW) 21:17:30 435.350 FM
BEESAT 2 29 Apr 21:11:57 21:14:25 15° 35° (NE) 21:16:53 435.950
AAUSAT CUBESAT 2 29 Apr 21:16:37 21:20:19 31° 264° (W) 21:24:04 437.432
O/OREOS (USA 219) 29 Apr 21:17:26 21:20:25 17° 260° (W) 21:23:22 437.305
OBJECT BX 29 Apr 21:21:44 21:24:39 23° 68° (ENE) 21:27:35 145.990 - 145.960
UWE-3 29 Apr 21:25:23 21:29:05 29° 265° (W) 21:32:43 435.000/436.395/437.385
M-CUBED/EXP-1 PRIME 29 Apr 21:27:16 21:31:22 57° 293° (WNW) 21:35:07 437.505
DELFI C3 29 Apr 21:29:53 21:33:37 40° 71° (ENE) 21:37:24 145.870
CUBEBUG 2 29 Apr 21:48:28 21:49:53 11° 271° (W) 21:51:17 437.445
FO-29 29 Apr 22:14:04 22:17:04 15° 90° (E) 22:20:09 435.910
ZACube-1 29 Apr 22:14:27 22:16:59 16° 269° (W) 22:19:31 437.345
LO-87 29 Apr 22:15:13 22:17:16 15° 64° (ENE) 22:19:19 145.935 - 145.965
AO-73 29 Apr 22:19:20 22:21:47 15° 269° (W) 22:24:15 145.935
Oscar 11 29 Apr 22:30:42 22:33:08 15° 270° (W) 22:35:36 .
TIGRISAT 29 Apr 22:37:52 22:41:28 26° 95° (E) 22:45:07 435.000
AO-85 29 Apr 22:38:47 22:39:41 11° 250° (WSW) 22:40:35 145.980
BEESAT 3 29 Apr 22:42:15 22:46:03 41° 242° (WSW) 22:49:48 437.485
STRAND 1 29 Apr 22:44:29 22:45:55 11° 306° (NW) 22:47:22 437.568
ESTCUBE 1 29 Apr 22:48:01 22:51:37 24° 65° (ENE) 22:55:14 437.505/2401.250
BEESAT 2 29 Apr 22:48:41 22:52:47 89° 215° (SW) 22:56:49 435.950
NO-84 29 Apr 22:51:24 22:53:15 14° 0° (N) 22:55:01 435.350 FM
OBJECT BX 29 Apr 22:55:13 22:58:15 25° 265° (W) 23:01:19 145.990 - 145.960
PRISM 29 Apr 22:59:38 23:03:48 73° 103° (ESE) 23:07:54 437.425
UNISAT 6 29 Apr 22:59:46 23:03:56 47° 99° (E) 23:08:09 437.425
DELFI C3 29 Apr 23:05:52 23:08:35 17° 268° (W) 23:11:19 145.870
SPROUT 29 Apr 23:23:44 23:26:10 15° 62° (ENE) 23:28:35 437.525
AIST 2D 29 Apr 23:46:18 23:48:53 19° 93° (E) 23:51:26 435.315
LO-87 29 Apr 23:46:54 23:50:22 43° 261° (W) 23:53:51 145.935 - 145.965
FO-29 29 Apr 23:57:29 00:02:42 73° 287° (WNW) 00:08:17 435.910
50 SAT 29 Apr 23:59:06 00:01:25 17° 65° (ENE) 00:03:45 437.505
